DW5686 Weather Reports


Display with metric or nautical units.
time (UTC)temp
F
wind
direction
speed
MPH
gust
MPH
rain 1hr
in
rain 24hr
in
rain mn
in
humidity
%
barometer
mb
20200704013606 80 11 0.0 0.0 0.00 0.00 0.00 66 1014.1
20200704013105 80 11 0.0 0.0 0.00 0.00 0.00 65 1014.1
20200704012605 80 11 0.0 1.0 0.00 0.00 0.00 65 1014.0
20200704012105 80 11 0.0 1.0 0.00 0.00 0.00 65 1014.0
20200704011605 80 11 1.0 1.0 0.00 0.00 0.00 65 1013.9
20200704011105 80 11 0.0 0.0 0.00 0.00 0.00 65 1013.7
20200704010605 80 11 0.0 1.0 0.00 0.00 0.00 64 1013.6
20200704010105 81 11 0.0 1.0 0.00 0.00 0.00 63 1013.5
20200704005606 81 11 0.0 1.0 0.00 0.00 0.00 62 1013.5
20200704005105 81 11 0.0 1.0 0.00 0.00 0.00 60 1013.5
20200704004605 81 11 1.0 1.0 0.00 0.00 0.00 61 1013.5
20200704004105 82 11 1.0 2.0 0.00 0.00 0.00 60 1013.5
20200704003604 82 11 1.0 2.0 0.00 0.00 0.00 59 1013.5
20200704003104 82 11 0.0 0.0 0.00 0.00 0.00 59 1013.5
20200704002605 83 11 0.0 0.0 0.00 0.00 0.00 57 1013.5
20200704002104 83 11 0.0 0.0 0.00 0.00 0.00 58 1013.5
20200704001605 83 11 0.0 0.0 0.00 0.00 0.00 56 1013.5
20200704001105 83 11 0.0 1.0 0.00 0.00 0.00 58 1013.5
20200704000606 82 11 0.0 1.0 0.00 0.00 0.00 56 1013.3
20200704000105 83 11 0.0 0.0 0.00 0.00 0.00 57 1013.4
20200703235605 84 11 0.0 0.0 0.00 0.00 0.00 56 1013.4
20200703235105 84 11 0.0 1.0 0.00 0.00 0.00 55 1013.4
20200703234606 85 11 0.0 1.0 0.00 0.00 0.00 53 1013.3
20200703234106 85 11 0.0 1.0 0.00 0.00 0.00 52 1013.2
20200703233605 85 11 0.0 3.0 0.00 0.00 0.00 53 1013.3
20200703233105 85 11 1.0 3.0 0.00 0.00 0.00 51 1013.3
20200703232605 86 11 1.0 2.0 0.00 0.00 0.00 50 1013.2
20200703232105 86 11 0.0 2.0 0.00 0.00 0.00 49 1013.2
20200703231604 86 11 0.0 5.0 0.00 0.00 0.00 48 1013.1
20200703231105 87 11 0.0 5.0 0.00 0.00 0.00 46 1013.2
20200703230605 88 11 1.0 6.0 0.00 0.00 0.00 41 1013.1
20200703230105 87 31 0.0 8.0 0.00 0.00 0.00 43 1013.1
20200703225604 89 31 2.0 8.0 0.00 0.00 0.00 39 1013.1
20200703225105 88 15 2.0 8.0 0.00 0.00 0.00 43 1013.1
20200703224605 88 0 1.0 7.0 0.00 0.00 0.00 44 1013.2
20200703224105 89 14 2.0 8.0 0.00 0.00 0.00 40 1013.1
20200703223605 89 35 3.0 9.0 0.00 0.00 0.00 41 1013.1
20200703223105 89 22 6.0 9.0 0.00 0.00 0.00 40 1013.1
20200703222604 89 3 1.0 8.0 0.00 0.00 0.00 43 1013.0
20200703222105 89 21 3.0 12.0 0.00 0.00 0.00 42 1013.0
20200703221605 89 35 3.0 12.0 0.00 0.00 0.00 41 1013.0
20200703221105 89 28 2.0 7.0 0.00 0.00 0.00 43 1013.0
20200703220605 89 26 2.0 7.0 0.00 0.00 0.00 44 1013.1
20200703220105 89 49 2.0 8.0 0.00 0.00 0.00 41 1013.1
20200703215605 89 24 2.0 8.0 0.00 0.00 0.00 42 1013.1
20200703215105 89 19 3.0 7.0 0.00 0.00 0.00 44 1013.0
20200703214605 89 357 1.0 10.0 0.00 0.00 0.00 41 1013.0
20200703214105 89 0 1.0 10.0 0.00 0.00 0.00 42 1013.1
20200703213604 90 30 6.0 10.0 0.00 0.00 0.00 41 1013.1
20200703213104 89 9 2.0 9.0 0.00 0.00 0.00 42 1013.2
20200703212605 90 39 3.0 9.0 0.00 0.00 0.00 39 1013.2
20200703212105 90 31 0.0 8.0 0.00 0.00 0.00 45 1013.3
20200703211605 89 31 1.0 9.0 0.00 0.00 0.00 40 1013.4
20200703211105 90 28 3.0 9.0 0.00 0.00 0.00 40 1013.5
20200703210605 90 28 1.0 5.0 0.00 0.00 0.00 39 1013.5
20200703210105 90 42 0.0 9.0 0.00 0.00 0.00 42 1013.5
20200703205604 90 47 2.0 9.0 0.00 0.00 0.00 43 1013.6
20200703205105 90 33 1.0 8.0 0.00 0.00 0.00 42 1013.6
20200703204605 90 28 3.0 8.0 0.00 0.00 0.00 40 1013.6
20200703204105 90 15 2.0 7.0 0.00 0.00 0.00 43 1013.7
20200703203605 90 13 2.0 6.0 0.00 0.00 0.00 41 1013.7
20200703203105 90 13 1.0 9.0 0.00 0.00 0.00 40 1013.8
20200703202605 90 44 3.0 9.0 0.00 0.00 0.00 39 1014.0
20200703202104 91 146 2.0 9.0 0.00 0.00 0.00 38 1014.0
20200703201605 90 35 0.0 9.0 0.00 0.00 0.00 39 1014.1
20200703201104 90 27 3.0 8.0 0.00 0.00 0.00 42 1014.1
20200703200605 90 14 2.0 9.0 0.00 0.00 0.00 42 1014.1
20200703200105 89 10 3.0 13.0 0.00 0.00 0.00 40 1014.2
20200703195605 89 24 7.0 13.0 0.00 0.00 0.00 43 1014.3
20200703195105 90 30 3.0 10.0 0.00 0.00 0.00 44 1014.5
20200703194604 90 34 2.0 9.0 0.00 0.00 0.00 41 1014.6
20200703194104 90 15 1.0 6.0 0.00 0.00 0.00 42 1014.6
20200703193605 90 17 1.0 6.0 0.00 0.00 0.00 42 1014.6
20200703193105 89 2 2.0 7.0 0.00 0.00 0.00 40 1014.7
20200703192605 90 2 2.0 7.0 0.00 0.00 0.00 41 1014.8
20200703192105 89 4 2.0 7.0 0.00 0.00 0.00 46 1014.8
20200703191604 90 15 1.0 9.0 0.00 0.00 0.00 43 1014.8
20200703191105 90 17 3.0 9.0 0.00 0.00 0.00 42 1014.8
20200703190604 90 3 3.0 9.0 0.00 0.00 0.00 45 1014.9
20200703190105 90 124 2.0 9.0 0.00 0.00 0.00 46 1014.9
20200703185604 90 314 2.0 9.0 0.00 0.00 0.00 46 1015.0
20200703185105 90 90 1.0 9.0 0.00 0.00 0.00 46 1015.0
20200703184605 89 33 3.0 9.0 0.00 0.00 0.00 42 1015.0
20200703184104 89 357 1.0 7.0 0.00 0.00 0.00 46 1015.0
20200703183604 89 357 1.0 7.0 0.00 0.00 0.00 43 1015.0
20200703183105 89 12 1.0 7.0 0.00 0.00 0.00 46 1015.1
20200703182604 88 36 1.0 7.0 0.00 0.00 0.00 45 1015.1
20200703182105 88 27 2.0 10.0 0.00 0.00 0.00 50 1015.2
20200703181604 89 16 1.0 10.0 0.00 0.00 0.00 51 1015.2
20200703181104 87 36 0.0 5.0 0.00 0.00 0.00 54 1015.2
20200703180604 87 36 1.0 5.0 0.00 0.00 0.00 50 1015.3
20200703180105 88 36 0.0 7.0 0.00 0.00 0.00 50 1015.3
20200703175604 88 33 1.0 8.0 0.00 0.00 0.00 49 1015.4
20200703175105 89 32 4.0 8.0 0.00 0.00 0.00 50 1015.4
20200703174606 88 25 4.0 8.0 0.00 0.00 0.00 49 1015.4
20200703174105 88 37 1.0 9.0 0.00 0.00 0.00 48 1015.6
20200703173604 88 21 0.0 9.0 0.00 0.00 0.00 47 1015.6
20200703173105 87 50 4.0 9.0 0.00 0.00 0.00 51 1015.6
20200703172604 86 18 2.0 9.0 0.00 0.00 0.00 51 1015.7
20200703172106 87 60 3.0 9.0 0.00 0.00 0.00 52 1015.6
20200703171605 87 26 1.0 5.0 0.00 0.00 0.00 50 1015.6
20200703171105 87 94 1.0 3.0 0.00 0.00 0.00 50 1015.7
20200703170605 86 89 1.0 9.0 0.00 0.00 0.00 48 1015.8
20200703170104 88 26 1.0 10.0 0.00 0.00 0.00 50 1016.0
20200703165605 88 21 6.0 10.0 0.00 0.00 0.00 50 1016.0
20200703165105 85 27 6.0 10.0 0.00 0.00 0.00 49 1016.1
20200703164604 87 53 1.0 5.0 0.00 0.00 0.00 50 1016.0
20200703164105 87 61 1.0 5.0 0.00 0.00 0.00 49 1016.1
20200703163605 88 359 1.0 6.0 0.00 0.00 0.00 46 1016.1
20200703163105 88 36 2.0 10.0 0.00 0.00 0.00 52 1016.1
20200703162604 86 50 3.0 12.0 0.00 0.00 0.00 50 1016.1
20200703162104 85 33 1.0 12.0 0.00 0.00 0.00 52 1016.1
20200703161605 86 15 2.0 6.0 0.00 0.00 0.00 47 1016.2
20200703161105 88 22 1.0 7.0 0.00 0.00 0.00 54 1016.2
20200703160605 86 2 3.0 8.0 0.00 0.00 0.00 49 1016.2
20200703160105 86 34 5.0 8.0 0.00 0.00 0.00 48 1016.2
20200703155605 87 357 1.0 6.0 0.00 0.00 0.00 49 1016.2
20200703155104 86 310 1.0 6.0 0.00 0.00 0.00 53 1016.2
20200703154605 86 217 2.0 6.0 0.00 0.00 0.00 48 1016.2
20200703154105 86 64 1.0 9.0 0.00 0.00 0.00 51 1016.2
20200703153605 85 65 2.0 9.0 0.00 0.00 0.00 50 1016.4
20200703153104 86 205 2.0 6.0 0.00 0.00 0.00 49 1016.4
20200703152605 85 202 0.0 7.0 0.00 0.00 0.00 51 1016.4
20200703152105 85 350 1.0 8.0 0.00 0.00 0.00 52 1016.3
20200703151605 85 322 2.0 8.0 0.00 0.00 0.00 52 1016.3
20200703151105 84 4 5.0 8.0 0.00 0.00 0.00 52 1016.3
20200703150604 84 9 2.0 7.0 0.00 0.00 0.00 54 1016.3
20200703150105 84 253 2.0 7.0 0.00 0.00 0.00 57 1016.4
20200703145605 84 22 2.0 7.0 0.00 0.00 0.00 58 1016.3
20200703145104 84 12 2.0 5.0 0.00 0.00 0.00 56 1016.2
20200703144604 84 31 1.0 3.0 0.00 0.00 0.00 60 1016.2
20200703144104 84 352 0.0 6.0 0.00 0.00 0.00 64 1016.2
20200703143605 83 355 1.0 7.0 0.00 0.00 0.00 66 1016.2
20200703143104 83 245 1.0 7.0 0.00 0.00 0.00 63 1016.2
20200703142604 82 97 1.0 6.0 0.00 0.00 0.00 63 1016.2
20200703142105 82 346 1.0 7.0 0.00 0.00 0.00 65 1016.2
20200703141605 82 229 1.0 7.0 0.00 0.00 0.00 67 1016.2
20200703141104 82 263 1.0 7.0 0.00 0.00 0.00 68 1016.2
20200703140605 82 38 0.0 5.0 0.00 0.00 0.00 67 1016.2
20200703140105 81 38 0.0 5.0 0.00 0.00 0.00 69 1016.2
20200703135604 81 38 1.0 6.0 0.00 0.00 0.00 71 1016.2
20200703135104 81 39 1.0 6.0 0.00 0.00 0.00 72 1016.2
20200703134605 81 22 0.0 5.0 0.00 0.00 0.00 71 1016.2
20200703134105 80 22 1.0 7.0 0.00 0.00 0.00 71 1016.2
20200703133605 80 51 2.0 7.0 0.00 0.01 0.00 72 1016.2
20200703133104 80 38 3.0 7.0 0.00 0.01 0.00 73 1016.2
20200703132605 80 20 1.0 7.0 0.00 0.01 0.00 75 1016.2
20200703132104 79 22 2.0 7.0 0.00 0.01 0.00 73 1016.2
20200703131604 79 25 1.0 6.0 0.00 0.01 0.00 74 1016.2
20200703131105 79 28 2.0 6.0 0.00 0.01 0.00 75 1016.2
20200703130605 78 31 2.0 6.0 0.00 0.01 0.00 78 1016.2
20200703130106 78 26 1.0 5.0 0.00 0.01 0.00 78 1016.2
20200703125605 77 26 1.0 5.0 0.00 0.01 0.00 79 1016.2
20200703125104 77 26 0.0 3.0 0.00 0.01 0.00 80 1016.2
20200703124605 77 26 0.0 6.0 0.00 0.01 0.00 81 1016.2
20200703124104 77 26 3.0 6.0 0.00 0.01 0.00 79 1016.2
20200703123604 75 13 1.0 6.0 0.00 0.01 0.00 86 1016.2
20200703123105 75 331 0.0 1.0 0.00 0.01 0.00 86 1016.1
20200703122604 75 331 0.0 1.0 0.00 0.01 0.00 86 1016.1
20200703122104 74 331 0.0 1.0 0.00 0.01 0.00 88 1016.2
20200703121604 74 331 0.0 2.0 0.00 0.01 0.00 88 1016.2
20200703121105 74 331 1.0 2.0 0.00 0.01 0.00 89 1016.1
20200703120604 73 331 0.0 1.0 0.00 0.01 0.00 89 1016.1
20200703120104 73 331 0.0 1.0 0.00 0.01 0.00 91 1016.2
20200703115605 72 331 0.0 1.0 0.00 0.01 0.00 92 1016.2
20200703115104 72 331 0.0 1.0 0.00 0.01 0.00 92 1016.2
20200703114604 72 331 0.0 2.0 0.00 0.01 0.00 93 1016.1
20200703114104 72 331 1.0 2.0 0.00 0.01 0.00 94 1016.0
20200703113605 71 332 0.0 1.0 0.00 0.01 0.00 94 1016.0
20200703113104 71 332 0.0 1.0 0.00 0.01 0.00 95 1016.0
20200703112604 71 332 0.0 1.0 0.00 0.01 0.00 96 1015.8
20200703112105 70 332 0.0 1.0 0.00 0.01 0.00 98 1015.8
20200703111604 70 332 0.0 0.0 0.00 0.01 0.00 98 1015.7
20200703111105 70 332 0.0 0.0 0.00 0.01 0.00 98 1015.7
20200703110604 70 332 0.0 0.0 0.00 0.01 0.00 98 1015.6
20200703110106 69 332 0.0 0.0 0.00 0.01 0.00 98 1015.6
20200703105604 69 332 0.0 0.0 0.00 0.01 0.00 98 1015.6
20200703105104 69 332 0.0 0.0 0.00 0.01 0.00 98 1015.6
20200703104604 69 332 0.0 0.0 0.00 0.01 0.00 99 1015.6
20200703104104 69 332 0.0 0.0 0.00 0.01 0.00 99 1015.5
20200703103604 69 332 0.0 0.0 0.00 0.01 0.00 98 1015.6
20200703103104 69 332 0.0 0.0 0.00 0.01 0.00 98 1015.5
20200703102606 69 332 0.0 0.0 0.00 0.01 0.00 99 1015.5
20200703102104 69 332 0.0 0.0 0.00 0.01 0.00 99 1015.5
20200703101605 69 332 0.0 0.0 0.00 0.01 0.00 98 1015.4
20200703101104 69 332 0.0 0.0 0.00 0.01 0.00 98 1015.2
20200703100604 69 332 0.0 0.0 0.00 0.01 0.00 98 1015.2
20200703100105 69 332 0.0 0.0 0.00 0.01 0.00 98 1015.1
20200703095604 69 332 0.0 0.0 0.00 0.01 0.00 98 1015.2
20200703095104 69 332 0.0 0.0 0.00 0.01 0.00 98 1015.2
20200703094605 69 332 0.0 0.0 0.00 0.01 0.00 98 1015.1
20200703094104 69 332 0.0 0.0 0.00 0.01 0.00 98 1015.1
20200703093604 69 332 0.0 0.0 0.00 0.01 0.00 98 1015.1
20200703093104 69 332 0.0 0.0 0.00 0.01 0.00 98 1015.0
20200703092605 69 332 0.0 0.0 0.00 0.01 0.00 98 1014.9
20200703092104 69 332 0.0 0.0 0.00 0.01 0.00 98 1014.9
20200703091604 70 332 0.0 0.0 0.00 0.01 0.00 98 1015.0
20200703091105 69 332 0.0 0.0 0.00 0.01 0.00 98 1015.0
20200703090604 70 332 0.0 0.0 0.00 0.01 0.00 98 1015.0
20200703090104 70 332 0.0 0.0 0.00 0.01 0.00 98 1014.9
20200703085604 70 332 0.0 0.0 0.00 0.01 0.00 98 1014.8
20200703085105 70 332 0.0 0.0 0.00 0.01 0.00 98 1014.8
20200703084604 70 332 0.0 0.0 0.00 0.01 0.00 98 1014.7
20200703084104 70 332 0.0 0.0 0.00 0.01 0.00 98 1014.8
20200703083604 70 332 0.0 0.0 0.00 0.01 0.00 98 1014.8
20200703083105 70 332 0.0 0.0 0.00 0.01 0.00 98 1014.7
20200703082604 70 332 0.0 0.0 0.00 0.01 0.00 98 1014.6
20200703082104 70 332 0.0 0.0 0.00 0.01 0.00 98 1014.6
20200703081605 70 332 0.0 0.0 0.00 0.01 0.00 98 1014.7
20200703081105 70 332 0.0 0.0 0.00 0.01 0.00 98 1014.8
20200703080604 70 332 0.0 0.0 0.00 0.01 0.00 98 1014.7
20200703080105 70 332 0.0 0.0 0.00 0.01 0.00 98 1014.7
20200703075604 71 332 0.0 0.0 0.00 0.01 0.00 96 1014.6
20200703075104 71 332 0.0 0.0 0.00 0.01 0.00 96 1014.7
20200703074605 71 332 0.0 0.0 0.00 0.01 0.00 96 1014.6
20200703074104 71 332 0.0 0.0 0.00 0.01 0.00 96 1014.6
20200703073604 71 332 0.0 0.0 0.00 0.01 0.00 96 1014.6
20200703073105 71 332 0.0 0.0 0.00 0.01 0.00 96 1014.7
20200703072604 71 332 0.0 0.0 0.00 0.01 0.00 96 1014.7
20200703072105 71 332 0.0 0.0 0.00 0.01 0.00 96 1014.7
20200703071604 71 332 0.0 0.0 0.00 0.01 0.00 96 1014.8
20200703071105 71 332 0.0 0.0 0.00 0.01 0.00 96 1014.7
20200703070635 71 332 0.0 0.0 0.00 0.01 0.00 95 1014.7
20200703070105 71 332 0.0 0.0 0.00 0.01 0.00 95 1014.7
20200703065604 71 332 0.0 0.0 0.00 0.01 0.00 95 1014.6
20200703065104 71 332 0.0 0.0 0.00 0.01 0.00 95 1014.7
20200703064604 71 332 0.0 0.0 0.00 0.01 0.00 95 1014.9
20200703064104 71 332 0.0 0.0 0.00 0.01 0.00 95 1015.0
20200703063604 72 332 0.0 0.0 0.00 0.01 0.00 95 1015.1
20200703063105 72 332 0.0 0.0 0.00 0.01 0.00 95 1015.1
20200703062605 72 332 0.0 0.0 0.00 0.01 0.00 95 1015.1
20200703062107 72 332 0.0 0.0 0.00 0.01 0.00 95 1015.1
20200703061605 72 332 0.0 0.0 0.00 0.01 0.00 95 1015.1
20200703061137 72 332 0.0 0.0 0.00 0.01 0.00 95 1015.1
20200703060604 72 332 0.0 0.0 0.00 0.01 0.00 95 1015.1
20200703060105 72 332 0.0 0.0 0.00 0.01 0.00 95 1015.1
20200703055604 72 332 0.0 0.0 0.00 0.01 0.00 95 1015.1
20200703055104 72 332 0.0 0.0 0.00 0.01 0.00 94 1015.1
20200703054605 72 332 0.0 0.0 0.00 0.01 0.00 94 1015.1
20200703054104 72 332 0.0 0.0 0.00 0.01 0.00 94 1015.1
20200703053604 72 332 0.0 0.0 0.00 0.01 0.00 93 1015.1
20200703053104 72 332 0.0 0.0 0.00 0.01 0.00 93 1015.1
20200703052605 73 332 0.0 0.0 0.00 0.01 0.00 93 1015.1
20200703052104 73 332 0.0 0.0 0.00 0.01 0.00 93 1015.1
20200703051604 73 332 0.0 0.0 0.00 0.01 0.00 92 1015.1
20200703051104 73 332 0.0 0.0 0.00 0.01 0.00 92 1015.1
20200703050604 73 332 0.0 0.0 0.00 0.01 0.00 92 1015.1
20200703050104 73 332 0.0 0.0 0.00 0.01 0.00 92 1015.1
20200703045604 73 332 0.0 0.0 0.00 0.01 0.00 91 1015.2
20200703045104 73 332 0.0 0.0 0.00 0.01 0.00 91 1015.1
20200703044604 73 332 0.0 0.0 0.00 0.01 0.00 91 1015.1
20200703044104 74 332 0.0 0.0 0.00 0.01 0.00 91 1015.1
20200703043604 74 332 0.0 0.0 0.00 0.01 0.00 91 1015.1
20200703043105 74 332 0.0 0.0 0.00 0.01 0.00 89 1015.1
20200703042604 74 332 0.0 0.0 0.00 0.01 0.00 89 1015.1
20200703042104 74 332 0.0 0.0 0.00 0.01 0.00 88 1015.1
20200703041604 74 332 0.0 0.0 0.00 0.01 0.00 88 1015.1
20200703041104 74 332 0.0 0.0 0.00 0.01 0.00 88 1015.1
20200703040604 75 332 0.0 0.0 0.00 0.01 0.00 88 1015.1
20200703040104 75 332 0.0 0.0 0.00 0.01 0.00 88 1015.1
20200703035604 75 332 0.0 0.0 0.00 0.01 0.01 87 1015.1
20200703035104 75 332 0.0 0.0 0.00 0.01 0.01 87 1015.1
20200703034605 75 332 0.0 0.0 0.00 0.01 0.01 87 1015.1
20200703034104 75 332 0.0 0.0 0.00 0.01 0.01 87 1015.1
20200703033604 75 332 0.0 0.0 0.00 0.01 0.01 87 1015.0
20200703033104 75 332 0.0 0.0 0.00 0.01 0.01 86 1014.9
20200703032604 75 332 0.0 0.0 0.00 0.01 0.01 86 1015.0
20200703032104 75 332 0.0 0.0 0.00 0.01 0.01 85 1014.9
20200703031604 76 332 0.0 1.0 0.00 0.01 0.01 84 1014.8
20200703031105 76 332 0.0 1.0 0.00 0.01 0.01 84 1014.9
20200703030605 76 20 0.0 0.0 0.00 0.01 0.01 82 1014.9
20200703030105 76 20 0.0 0.0 0.00 0.01 0.01 82 1014.9
20200703025604 76 20 0.0 0.0 0.00 0.01 0.01 81 1014.9
20200703025105 76 20 0.0 0.0 0.00 0.01 0.01 81 1014.8
20200703024604 76 20 0.0 0.0 0.00 0.01 0.01 80 1014.8
20200703024104 76 20 0.0 0.0 0.00 0.01 0.01 80 1014.8
20200703023604 77 20 0.0 0.0 0.00 0.01 0.01 80 1014.7
20200703023104 77 20 0.0 0.0 0.00 0.01 0.01 80 1014.6
20200703022604 77 20 0.0 0.0 0.00 0.01 0.01 79 1014.6
20200703022104 77 20 0.0 0.0 0.00 0.01 0.01 79 1014.5
20200703021604 77 20 0.0 0.0 0.00 0.01 0.01 78 1014.4
20200703021104 77 20 0.0 0.0 0.00 0.01 0.01 79 1014.3
20200703020604 77 20 0.0 0.0 0.00 0.01 0.01 78 1014.2
20200703020104 77 20 0.0 0.0 0.00 0.01 0.01 77 1014.1
20200703015604 77 20 0.0 0.0 0.00 0.01 0.01 77 1014.1
20200703015105 77 20 0.0 0.0 0.00 0.01 0.01 76 1014.0
20200703014604 78 20 0.0 0.0 0.00 0.01 0.01 75 1013.8
20200703014104 78 20 0.0 0.0 0.00 0.01 0.01 75 1013.8